Time,TemperatureF,DewpointF,PressureIn,WindDirection,WindDirectionDegrees,WindSpeedMPH,WindSpeedGustMPH,Humidity,HourlyPrecipIn,Conditions,Clouds,dailyrainin,SoftwareType,DateUTC
2013-09-18 00:01:00,79.9,68.8,29.85,North,0,0.0,0.0,69,0.00,,SCT120,0.00,VWS V14.01,2013-09-18 04:01:00,
2013-09-18 00:06:00,79.9,68.8,29.85,North,0,0.0,0.0,69,0.00,,SCT120,0.00,VWS V14.01,2013-09-18 04:06:00,
2013-09-18 00:11:00,79.9,68.8,29.85,North,0,0.0,0.0,69,0.00,,SCT120,0.00,VWS V14.01,2013-09-18 04:11:00,
2013-09-18 00:16:00,79.7,68.6,29.85,North,0,0.0,0.0,69,0.00,,SCT120,0.00,VWS V14.01,2013-09-18 04:16:00,
2013-09-18 00:21:00,79.7,69.1,29.85,North,0,0.0,0.0,70,0.00,,SCT120,0.00,VWS V14.01,2013-09-18 04:21:00,
2013-09-18 00:26:00,79.5,68.9,29.85,North,0,0.0,0.0,70,0.00,,SCT120,0.00,VWS V14.01,2013-09-18 04:26:00,
2013-09-18 00:31:00,79.5,68.9,29.85,North,0,0.0,0.0,70,0.00,,SCT120,0.00,VWS V14.01,2013-09-18 04:31:00,
2013-09-18 00:36:00,79.5,69.3,29.85,North,0,0.0,0.0,71,0.00,,SCT120,0.00,VWS V14.01,2013-09-18 04:36:00,
2013-09-18 00:41:00,79.3,69.1,29.85,North,0,0.0,0.0,71,0.00,,SCT120,0.00,VWS V14.01,2013-09-18 04:41:00,
2013-09-18 00:46:00,79.3,69.1,29.85,North,0,0.0,0.0,71,0.00,,SCT120,0.00,VWS V14.01,2013-09-18 04:46:00,
2013-09-18 00:51:00,79.3,69.1,29.85,North,0,0.0,0.0,71,0.00,,SCT120,0.00,VWS V14.01,2013-09-18 04:51:00,
2013-09-18 00:57:00,79.2,68.9,29.85,North,0,0.0,0.0,71,0.00,,SCT120,0.00,VWS V14.01,2013-09-18 04:57:00,
2013-09-18 01:02:00,79.0,69.2,29.85,North,0,0.0,0.0,72,0.00,,SCT120,0.00,VWS V14.01,2013-09-18 05:02:00,
2013-09-18 01:07:00,78.8,69.0,29.85,North,0,0.0,0.0,72,0.00,,SCT120,0.00,VWS V14.01,2013-09-18 05:07:00,
2013-09-18 01:12:00,78.8,69.0,29.85,North,0,0.0,0.0,72,0.00,,SCT120,0.00,VWS V14.01,2013-09-18 05:12:00,
2013-09-18 01:17:00,79.0,69.6,29.85,North,0,0.0,0.0,73,0.00,,SCT120,0.00,VWS V14.01,2013-09-18 05:17:00,
2013-09-18 01:22:00,79.0,69.6,29.85,North,0,0.0,0.0,73,0.00,,SCT120,0.00,VWS V14.01,2013-09-18 05:22:00,
2013-09-18 01:27:00,78.8,69.4,29.85,North,0,0.0,0.0,73,0.00,,SCT120,0.00,VWS V14.01,2013-09-18 05:27:00,
2013-09-18 01:31:00,79.0,69.6,29.85,North,0,0.0,0.0,73,0.00,,SCT120,0.00,VWS V14.01,2013-09-18 05:31:00,
2013-09-18 01:36:00,78.8,69.4,29.85,North,0,0.0,0.0,73,0.00,,SCT120,0.00,VWS V14.01,2013-09-18 05:36:00,
2013-09-18 01:41:00,78.8,69.4,29.85,North,0,0.0,0.0,73,0.00,,SCT120,0.00,VWS V14.01,2013-09-18 05:41:00,
2013-09-18 01:46:00,78.6,69.7,29.82,North,0,0.0,0.0,74,0.00,,SCT120,0.00,VWS V14.01,2013-09-18 05:46:00,
2013-09-18 01:51:00,78.6,69.7,29.82,North,0,0.0,0.0,74,0.00,,SCT120,0.00,VWS V14.01,2013-09-18 05:51:00,
2013-09-18 01:56:00,78.6,69.7,29.82,North,0,0.0,0.0,74,0.00,,SCT120,0.00,VWS V14.01,2013-09-18 05:56:00,
2013-09-18 02:01:00,78.4,69.5,29.82,North,0,0.0,0.0,74,0.00,,SCT120,0.00,VWS V14.01,2013-09-18 06:01:00,
2013-09-18 02:06:00,78.4,69.5,29.82,North,0,0.0,0.0,74,0.00,,SCT120,0.00,VWS V14.01,2013-09-18 06:06:00,
2013-09-18 02:11:00,78.3,69.3,29.82,North,0,0.0,0.0,74,0.00,,SCT120,0.00,VWS V14.01,2013-09-18 06:11:00,
2013-09-18 02:16:00,78.3,69.7,29.82,North,0,0.0,0.0,75,0.00,,SCT120,0.00,VWS V14.01,2013-09-18 06:16:00,
2013-09-18 02:21:00,78.3,69.7,29.82,North,0,0.0,0.0,75,0.00,,SCT120,0.00,VWS V14.01,2013-09-18 06:21:00,
2013-09-18 02:26:00,78.1,69.5,29.82,North,0,0.0,0.0,75,0.00,,SCT120,0.00,VWS V14.01,2013-09-18 06:26:00,
2013-09-18 02:31:00,78.3,69.7,29.82,North,0,0.0,0.0,75,0.00,,SCT120,0.00,VWS V14.01,2013-09-18 06:31:00,
2013-09-18 02:36:00,78.3,70.1,29.82,North,0,0.0,0.0,76,0.00,,SCT120,0.00,VWS V14.01,2013-09-18 06:36:00,
2013-09-18 02:41:00,78.1,69.9,29.82,North,0,0.0,0.0,76,0.00,,SCT120,0.00,VWS V14.01,2013-09-18 06:41:00,
2013-09-18 02:46:00,78.1,69.9,29.82,North,0,0.0,0.0,76,0.00,,SCT120,0.00,VWS V14.01,2013-09-18 06:46:00,
2013-09-18 02:51:00,78.3,70.1,29.82,North,0,0.0,0.0,76,0.00,,SCT120,0.00,VWS V14.01,2013-09-18 06:51:00,
2013-09-18 02:56:00,78.1,69.9,29.82,North,0,0.0,0.0,76,0.00,,SCT120,0.00,VWS V14.01,2013-09-18 06:56:00,
2013-09-18 03:01:00,77.9,69.7,29.82,North,0,0.0,0.0,76,0.00,,SCT120,0.00,VWS V14.01,2013-09-18 07:01:00,
2013-09-18 03:06:00,77.9,69.7,29.82,North,0,0.0,0.0,76,0.00,,SCT120,0.00,VWS V14.01,2013-09-18 07:06:00,
2013-09-18 03:11:00,78.1,70.3,29.82,North,0,0.0,0.0,77,0.00,,SCT120,0.00,VWS V14.01,2013-09-18 07:11:00,
2013-09-18 03:16:00,78.3,70.5,29.82,North,0,0.0,0.0,77,0.00,,SCT120,0.00,VWS V14.01,2013-09-18 07:16:00,
2013-09-18 03:21:00,78.3,70.5,29.82,North,0,0.0,0.0,77,0.00,,SCT120,0.00,VWS V14.01,2013-09-18 07:21:00,
2013-09-18 03:26:00,78.1,70.3,29.82,North,0,0.0,0.0,77,0.00,,SCT120,0.00,VWS V14.01,2013-09-18 07:26:00,
2013-09-18 03:31:00,77.9,70.1,29.82,North,0,0.0,0.0,77,0.00,,SCT120,0.00,VWS V14.01,2013-09-18 07:31:00,
2013-09-18 03:36:00,77.7,69.9,29.82,North,0,0.0,0.0,77,0.00,,SCT120,0.00,VWS V14.01,2013-09-18 07:36:00,
2013-09-18 03:41:00,77.7,69.9,29.82,North,0,0.0,0.0,77,0.00,,SCT120,0.00,VWS V14.01,2013-09-18 07:41:00,
2013-09-18 03:46:00,77.7,69.9,29.82,North,0,0.0,0.0,77,0.00,,SCT120,0.00,VWS V14.01,2013-09-18 07:46:00,
2013-09-18 03:51:00,77.5,69.8,29.82,North,0,0.0,0.0,77,0.00,,SCT120,0.00,VWS V14.01,2013-09-18 07:51:00,
2013-09-18 03:56:00,77.5,69.8,29.82,North,0,0.0,0.0,77,0.00,,SCT120,0.00,VWS V14.01,2013-09-18 07:56:00,
2013-09-18 04:01:00,77.5,69.8,29.82,North,0,0.0,0.0,77,0.00,,SCT120,0.00,VWS V14.01,2013-09-18 08:01:00,
2013-09-18 04:06:00,77.5,70.1,29.82,North,0,0.0,0.0,78,0.00,,SCT120,0.00,VWS V14.01,2013-09-18 08:06:00,
2013-09-18 04:11:00,77.5,70.1,29.82,North,0,0.0,0.0,78,0.00,,SCT120,0.00,VWS V14.01,2013-09-18 08:11:00,
2013-09-18 04:16:00,77.7,70.3,29.82,North,0,0.0,0.0,78,0.00,,SCT120,0.00,VWS V14.01,2013-09-18 08:16:00,
2013-09-18 04:21:00,77.7,70.3,29.82,North,0,0.0,0.0,78,0.00,,SCT120,0.00,VWS V14.01,2013-09-18 08:21:00,
2013-09-18 04:26:00,77.5,70.1,29.82,North,0,0.0,0.0,78,0.00,,SCT120,0.00,VWS V14.01,2013-09-18 08:26:00,
2013-09-18 04:31:00,77.4,70.0,29.82,North,0,0.0,0.0,78,0.00,,SCT120,0.00,VWS V14.01,2013-09-18 08:31:00,
2013-09-18 04:36:00,77.2,69.8,29.82,North,0,0.0,0.0,78,0.00,,SCT120,0.00,VWS V14.01,2013-09-18 08:36:00,
2013-09-18 04:41:00,77.2,69.8,29.82,North,0,0.0,0.0,78,0.00,,SCT120,0.00,VWS V14.01,2013-09-18 08:41:00,
2013-09-18 04:46:00,77.2,69.8,29.82,North,0,0.0,0.0,78,0.00,,SCT120,0.00,VWS V14.01,2013-09-18 08:46:00,
2013-09-18 04:51:00,77.2,69.8,29.82,North,0,0.0,0.0,78,0.00,,SCT120,0.00,VWS V14.01,2013-09-18 08:51:00,
2013-09-18 04:56:00,77.2,70.2,29.82,North,0,0.0,0.0,79,0.00,,SCT120,0.00,VWS V14.01,2013-09-18 08:56:00,
2013-09-18 05:01:00,77.0,69.6,29.82,North,0,0.0,0.0,78,0.00,,SCT120,0.00,VWS V14.01,2013-09-18 09:01:00,
2013-09-18 05:06:00,77.0,70.0,29.82,North,0,0.0,0.0,79,0.00,,SCT120,0.00,VWS V14.01,2013-09-18 09:06:00,
2013-09-18 05:11:00,76.8,69.8,29.79,North,0,0.0,0.0,79,0.00,,SCT120,0.00,VWS V14.01,2013-09-18 09:11:00,
2013-09-18 05:16:00,76.8,69.8,29.79,North,0,0.0,0.0,79,0.00,,SCT120,0.00,VWS V14.01,2013-09-18 09:16:00,
2013-09-18 05:21:00,76.8,69.8,29.79,North,0,0.0,0.0,79,0.00,,SCT120,0.00,VWS V14.01,2013-09-18 09:21:00,
2013-09-18 05:26:00,76.8,69.8,29.82,North,0,0.0,0.0,79,0.00,,SCT120,0.00,VWS V14.01,2013-09-18 09:26:00,
2013-09-18 05:31:00,76.8,69.8,29.82,North,0,0.0,0.0,79,0.00,,SCT120,0.00,VWS V14.01,2013-09-18 09:31:00,
2013-09-18 05:36:00,76.8,70.2,29.82,North,0,0.0,0.0,80,0.00,,SCT120,0.00,VWS V14.01,2013-09-18 09:36:00,
2013-09-18 05:41:00,76.8,70.2,29.82,North,0,0.0,0.0,80,0.00,,SCT120,0.00,VWS V14.01,2013-09-18 09:41:00,
2013-09-18 05:46:00,76.6,70.0,29.82,North,0,0.0,0.0,80,0.00,,SCT120,0.00,VWS V14.01,2013-09-18 09:46:00,
2013-09-18 05:51:00,76.6,70.0,29.82,North,0,0.0,0.0,80,0.00,,SCT120,0.00,VWS V14.01,2013-09-18 09:51:00,
2013-09-18 05:56:00,76.6,70.0,29.82,North,0,0.0,0.0,80,0.00,,SCT120,0.00,VWS V14.01,2013-09-18 09:56:00,
2013-09-18 06:01:00,76.6,70.0,29.82,North,0,0.0,0.0,80,0.00,,SCT120,0.00,VWS V14.01,2013-09-18 10:01:00,
2013-09-18 06:06:00,76.6,70.0,29.82,North,0,0.0,0.0,80,0.00,,SCT120,0.00,VWS V14.01,2013-09-18 10:06:00,
2013-09-18 06:11:00,76.5,69.8,29.82,North,0,0.0,0.0,80,0.00,,SCT120,0.00,VWS V14.01,2013-09-18 10:11:00,
2013-09-18 06:16:00,76.6,70.0,29.82,North,0,0.0,0.0,80,0.00,,SCT120,0.00,VWS V14.01,2013-09-18 10:16:00,
2013-09-18 06:21:00,76.6,70.0,29.82,North,0,0.0,0.0,80,0.00,,SCT120,0.00,VWS V14.01,2013-09-18 10:21:00,
2013-09-18 06:26:00,76.6,70.0,29.82,North,0,0.0,0.0,80,0.00,,SCT120,0.00,VWS V14.01,2013-09-18 10:26:00,
2013-09-18 06:31:00,76.6,70.4,29.82,North,0,0.0,0.0,81,0.00,,SCT120,0.00,VWS V14.01,2013-09-18 10:31:00,
2013-09-18 06:36:00,76.8,70.6,29.82,North,0,0.0,0.0,81,0.00,,SCT120,0.00,VWS V14.01,2013-09-18 10:36:00,
2013-09-18 06:41:00,77.0,70.7,29.82,North,0,0.0,0.0,81,0.00,,SCT120,0.00,VWS V14.01,2013-09-18 10:41:00,
2013-09-18 06:46:00,77.2,70.9,29.82,North,0,0.0,0.0,81,0.00,,SCT120,0.00,VWS V14.01,2013-09-18 10:46:00,
2013-09-18 06:51:00,77.4,71.1,29.82,North,0,0.0,0.0,81,0.00,,SCT120,0.00,VWS V14.01,2013-09-18 10:51:00,
2013-09-18 06:56:00,77.5,71.2,29.85,North,0,0.0,0.0,81,0.00,,SCT120,0.00,VWS V14.01,2013-09-18 10:56:00,
2013-09-18 07:01:00,77.9,71.6,29.85,North,0,0.0,0.0,81,0.00,,SCT120,0.00,VWS V14.01,2013-09-18 11:01:00,
2013-09-18 07:06:00,78.1,71.8,29.85,North,0,0.0,0.0,81,0.00,,SCT120,0.00,VWS V14.01,2013-09-18 11:06:00,
2013-09-18 07:11:00,78.4,72.1,29.85,North,0,0.0,0.0,81,0.00,,SCT120,0.00,VWS V14.01,2013-09-18 11:11:00,
2013-09-18 07:16:00,78.8,72.1,29.85,North,0,0.0,0.0,80,0.00,,SCT120,0.00,VWS V14.01,2013-09-18 11:16:00,
2013-09-18 07:21:00,79.0,72.3,29.85,North,0,0.0,0.0,80,0.00,,SCT120,0.00,VWS V14.01,2013-09-18 11:21:00,
2013-09-18 07:26:00,79.5,72.8,29.85,North,0,0.0,0.0,80,0.00,,SCT120,0.00,VWS V14.01,2013-09-18 11:26:00,
2013-09-18 07:31:00,79.9,72.8,29.85,North,0,0.0,0.0,79,0.00,,SCT120,0.00,VWS V14.01,2013-09-18 11:31:00,
2013-09-18 07:36:00,80.2,73.1,29.85,North,0,0.0,0.0,79,0.00,,SCT120,0.00,VWS V14.01,2013-09-18 11:36:00,
2013-09-18 07:41:00,80.6,73.1,29.85,North,0,0.0,0.0,78,0.00,,SCT120,0.00,VWS V14.01,2013-09-18 11:41:00,
2013-09-18 07:46:00,80.8,73.3,29.85,North,0,0.0,0.0,78,0.00,,SCT120,0.00,VWS V14.01,2013-09-18 11:46:00,
2013-09-18 07:51:00,81.3,73.4,29.85,North,0,0.0,0.0,77,0.00,,SCT120,0.00,VWS V14.01,2013-09-18 11:51:00,
2013-09-18 07:56:00,81.7,73.4,29.85,North,0,0.0,0.0,76,0.00,,SCT120,0.00,VWS V14.01,2013-09-18 11:56:00,
2013-09-18 08:01:00,82.0,72.1,29.85,North,0,0.0,0.0,72,0.00,,SCT120,0.00,VWS V14.01,2013-09-18 12:01:00,
2013-09-18 08:06:00,82.6,71.8,29.85,North,0,0.0,0.0,70,0.00,,SCT120,0.00,VWS V14.01,2013-09-18 12:06:00,
2013-09-18 08:11:00,83.1,71.5,29.85,North,0,0.0,0.0,68,0.00,,SCT120,0.00,VWS V14.01,2013-09-18 12:11:00,
2013-09-18 08:16:00,83.3,71.2,29.85,North,0,0.0,0.0,67,0.00,,SCT120,0.00,VWS V14.01,2013-09-18 12:16:00,
2013-09-18 08:21:00,83.8,70.4,29.85,North,0,0.0,0.0,64,0.00,,SCT120,0.00,VWS V14.01,2013-09-18 12:21:00,
2013-09-18 08:26:00,84.2,70.2,29.85,North,0,0.0,0.0,63,0.00,,SCT120,0.00,VWS V14.01,2013-09-18 12:26:00,
2013-09-18 08:31:00,84.6,68.7,29.85,North,0,0.0,0.0,59,0.00,,SCT120,0.00,VWS V14.01,2013-09-18 12:31:00,
2013-09-18 08:36:00,84.6,67.2,29.85,North,0,0.0,0.0,56,0.00,,SCT120,0.00,VWS V14.01,2013-09-18 12:36:00,
2013-09-18 08:41:00,85.1,66.6,29.88,North,0,0.0,0.0,54,0.00,,SCT120,0.00,VWS V14.01,2013-09-18 12:41:00,
2013-09-18 08:46:00,85.5,66.4,29.88,North,0,0.0,0.0,53,0.00,,SCT120,0.00,VWS V14.01,2013-09-18 12:46:00,
2013-09-18 08:51:00,85.6,65.4,29.88,North,0,0.0,0.0,51,0.00,,SCT120,0.00,VWS V14.01,2013-09-18 12:51:00,
2013-09-18 08:56:00,86.0,65.8,29.88,North,0,0.0,0.0,51,0.00,,SCT120,0.00,VWS V14.01,2013-09-18 12:56:00,
2013-09-18 09:01:00,86.2,63.0,29.88,North,0,0.0,0.0,46,0.00,,SCT120,0.00,VWS V14.01,2013-09-18 13:01:00,
2013-09-18 09:06:00,86.5,63.9,29.88,North,0,0.0,0.0,47,0.00,,SCT120,0.00,VWS V14.01,2013-09-18 13:06:00,
2013-09-18 09:11:00,87.1,63.2,29.88,North,0,0.0,0.0,45,0.00,,SCT120,0.00,VWS V14.01,2013-09-18 13:11:00,
2013-09-18 09:16:00,87.6,62.4,29.88,North,0,0.0,0.0,43,0.00,,SCT120,0.00,VWS V14.01,2013-09-18 13:16:00,
2013-09-18 09:21:00,88.2,62.2,29.88,North,0,0.0,0.0,42,0.00,,SCT120,0.00,VWS V14.01,2013-09-18 13:21:00,
2013-09-18 09:26:00,88.5,61.1,29.88,North,0,0.0,0.0,40,0.00,,SCT120,0.00,VWS V14.01,2013-09-18 13:26:00,
2013-09-18 09:31:00,88.5,57.4,29.88,North,0,0.0,0.0,35,0.00,,SCT120,0.00,VWS V14.01,2013-09-18 13:31:00,
2013-09-18 09:36:00,89.2,54.7,29.88,North,0,0.0,0.0,31,0.00,,SCT120,0.00,VWS V14.01,2013-09-18 13:36:00,
2013-09-18 09:41:00,89.4,54.8,29.88,North,0,0.0,0.0,31,0.00,,SCT120,0.00,VWS V14.01,2013-09-18 13:41:00,
2013-09-18 09:46:00,89.4,53.9,29.88,North,0,0.0,0.0,30,0.00,,SCT120,0.00,VWS V14.01,2013-09-18 13:46:00,
2013-09-18 09:51:00,89.6,52.2,29.88,North,0,0.0,0.0,28,0.00,,SCT120,0.00,VWS V14.01,2013-09-18 13:51:00,
2013-09-18 09:56:00,90.1,52.7,29.88,North,0,0.0,0.0,28,0.00,,SCT120,0.00,VWS V14.01,2013-09-18 13:56:00,
2013-09-18 10:01:00,90.3,52.8,29.88,North,0,0.0,0.0,28,0.00,,SCT120,0.00,VWS V14.01,2013-09-18 14:01:00,
2013-09-18 10:06:00,90.7,53.1,29.88,North,0,0.0,0.0,28,0.00,,SCT120,0.00,VWS V14.01,2013-09-18 14:06:00,
2013-09-18 10:11:00,90.1,51.7,29.85,North,0,0.0,0.0,27,0.00,,SCT120,0.00,VWS V14.01,2013-09-18 14:11:00,
2013-09-18 10:16:00,90.0,52.5,29.85,North,0,0.0,0.0,28,0.00,,SCT120,0.00,VWS V14.01,2013-09-18 14:16:00,
2013-09-18 10:21:00,89.8,52.4,29.85,North,0,0.0,0.0,28,0.00,,SCT120,0.00,VWS V14.01,2013-09-18 14:21:00,
2013-09-18 10:26:00,90.3,52.8,29.85,North,0,0.0,0.0,28,0.00,,SCT120,0.00,VWS V14.01,2013-09-18 14:26:00,
2013-09-18 10:31:00,90.3,52.8,29.85,North,0,0.0,0.0,28,0.00,,SCT120,0.00,VWS V14.01,2013-09-18 14:31:00,
2013-09-18 10:36:00,89.8,52.4,29.85,North,0,0.0,0.0,28,0.00,,SCT120,0.00,VWS V14.01,2013-09-18 14:36:00,
2013-09-18 10:41:00,89.6,57.5,29.88,North,0,0.0,0.0,34,0.00,,SCT120,0.00,VWS V14.01,2013-09-18 14:41:00,
2013-09-18 10:46:00,89.2,54.7,29.88,North,0,0.0,0.0,31,0.00,,SCT120,0.00,VWS V14.01,2013-09-18 14:46:00,
2013-09-18 10:51:00,89.6,55.0,29.88,North,0,0.0,0.0,31,0.00,,SCT120,0.00,VWS V14.01,2013-09-18 14:51:00,
2013-09-18 10:56:00,89.6,52.2,29.88,North,0,0.0,0.0,28,0.00,,SCT120,0.00,VWS V14.01,2013-09-18 14:56:00,
2013-09-18 11:01:00,90.5,53.9,29.88,North,0,0.0,0.0,29,0.00,,SCT120,0.00,VWS V14.01,2013-09-18 15:01:00,
2013-09-18 11:06:00,90.0,53.5,29.88,North,0,0.0,0.0,29,0.00,,SCT120,0.00,VWS V14.01,2013-09-18 15:06:00,
2013-09-18 11:11:00,89.6,54.1,29.88,North,0,0.0,0.0,30,0.00,,SCT120,0.00,VWS V14.01,2013-09-18 15:11:00,
2013-09-18 11:16:00,90.1,53.6,29.88,North,0,0.0,0.0,29,0.00,,SCT120,0.00,VWS V14.01,2013-09-18 15:16:00,
2013-09-18 11:21:00,90.7,54.1,29.88,North,0,0.0,0.0,29,0.00,,SCT120,0.00,VWS V14.01,2013-09-18 15:21:00,
2013-09-18 11:27:00,91.8,54.0,29.85,North,0,0.0,0.0,28,0.00,,SCT120,0.00,VWS V14.01,2013-09-18 15:27:00,
2013-09-18 11:32:00,92.8,47.2,29.85,North,0,0.0,0.0,21,0.00,,SCT120,0.00,VWS V14.01,2013-09-18 15:32:00,
2013-09-18 11:37:00,94.3,48.4,29.85,North,0,0.0,0.0,21,0.00,,SCT120,0.00,VWS V14.01,2013-09-18 15:37:00,
2013-09-18 11:42:00,94.6,46.0,29.85,North,0,0.0,0.0,19,0.00,,SCT120,0.00,VWS V14.01,2013-09-18 15:42:00,
2013-09-18 11:47:00,95.4,46.6,29.85,North,0,0.0,0.0,19,0.00,,SCT120,0.00,VWS V14.01,2013-09-18 15:47:00,
2013-09-18 11:52:00,95.4,43.7,29.85,North,0,0.0,0.0,17,0.00,,SCT120,0.00,VWS V14.01,2013-09-18 15:52:00,
2013-09-18 11:57:00,95.4,45.2,29.85,North,0,0.0,0.0,18,0.00,,SCT120,0.00,VWS V14.01,2013-09-18 15:57:00,
2013-09-18 12:01:00,95.9,44.1,29.85,North,0,0.0,0.0,17,0.00,,SCT120,0.00,VWS V14.01,2013-09-18 16:01:00,
2013-09-18 12:06:00,94.8,44.8,29.85,North,0,0.0,0.0,18,0.00,,SCT120,0.00,VWS V14.01,2013-09-18 16:06:00,
2013-09-18 12:11:00,94.5,45.9,29.85,North,0,0.0,0.0,19,0.00,,SCT120,0.00,VWS V14.01,2013-09-18 16:11:00,
2013-09-18 12:16:00,94.8,46.2,29.85,North,0,0.0,0.0,19,0.00,,SCT120,0.00,VWS V14.01,2013-09-18 16:16:00,
2013-09-18 12:21:00,95.5,45.3,29.85,North,0,0.0,0.0,18,0.00,,SCT120,0.00,VWS V14.01,2013-09-18 16:21:00,
2013-09-18 12:26:00,94.8,43.3,29.85,North,0,0.0,0.0,17,0.00,,SCT120,0.00,VWS V14.01,2013-09-18 16:26:00,
2013-09-18 12:31:00,95.4,43.7,29.85,North,0,0.0,0.0,17,0.00,,SCT120,0.00,VWS V14.01,2013-09-18 16:31:00,
2013-09-18 12:36:00,94.3,44.3,29.85,North,0,0.0,0.0,18,0.00,,SCT120,0.00,VWS V14.01,2013-09-18 16:36:00,
2013-09-18 12:41:00,93.4,43.6,29.82,North,0,0.0,0.0,18,0.00,,SCT120,0.00,VWS V14.01,2013-09-18 16:41:00,
2013-09-18 12:46:00,93.6,42.2,29.82,North,0,0.0,0.0,17,0.00,,SCT120,0.00,VWS V14.01,2013-09-18 16:46:00,
2013-09-18 12:51:00,94.3,42.8,29.82,North,0,0.0,0.0,17,0.00,,SCT120,0.00,VWS V14.01,2013-09-18 16:51:00,
2013-09-18 12:56:00,95.0,41.8,29.85,North,0,0.0,0.0,16,0.00,,SCT120,0.00,VWS V14.01,2013-09-18 16:56:00,
2013-09-18 13:02:00,96.1,39.2,29.85,North,0,0.0,0.0,14,0.00,,SCT120,0.00,VWS V14.01,2013-09-18 17:02:00,
2013-09-18 13:06:00,96.4,33.4,29.85,North,0,0.0,0.0,11,0.00,,SCT120,0.00,VWS V14.01,2013-09-18 17:06:00,
2013-09-18 13:12:00,97.0,33.8,29.82,North,0,0.0,0.0,11,0.00,,SCT120,0.00,VWS V14.01,2013-09-18 17:12:00,
2013-09-18 13:17:00,97.5,26.4,29.82,North,0,0.0,0.0,8,0.00,,SCT120,0.00,VWS V14.01,2013-09-18 17:17:00,
2013-09-18 13:22:00,98.1,26.8,29.82,North,0,0.0,0.0,8,0.00,,SCT120,0.00,VWS V14.01,2013-09-18 17:22:00,
2013-09-18 13:27:00,98.4,20.2,29.82,North,0,0.0,0.0,6,0.00,,SCT120,0.00,VWS V14.01,2013-09-18 17:27:00,
2013-09-18 13:32:00,98.4,27.1,29.82,North,0,0.0,0.0,8,0.00,,SCT120,0.00,VWS V14.01,2013-09-18 17:32:00,
2013-09-18 13:37:00,98.6,27.2,29.82,North,0,0.0,0.0,8,0.00,,SCT120,0.00,VWS V14.01,2013-09-18 17:37:00,
2013-09-18 13:42:00,99.0,27.5,29.82,North,0,0.0,0.0,8,0.00,,SCT120,0.00,VWS V14.01,2013-09-18 17:42:00,
2013-09-18 13:47:00,98.6,27.2,29.82,North,0,0.0,0.0,8,0.00,,SCT120,0.00,VWS V14.01,2013-09-18 17:47:00,
2013-09-18 13:52:00,97.9,26.7,29.82,North,0,0.0,0.0,8,0.00,,SCT120,0.00,VWS V14.01,2013-09-18 17:52:00,
2013-09-18 13:57:00,98.2,34.8,29.79,North,0,0.0,0.0,11,0.00,,SCT120,0.00,VWS V14.01,2013-09-18 17:57:00,
2013-09-18 14:02:00,98.4,34.9,29.79,North,0,0.0,0.0,11,0.00,,SCT120,0.00,VWS V14.01,2013-09-18 18:02:00,
2013-09-18 14:07:00,98.4,27.1,29.79,North,0,0.0,0.0,8,0.00,,SCT120,0.00,VWS V14.01,2013-09-18 18:07:00,
2013-09-18 14:12:00,97.9,26.7,29.79,North,0,0.0,0.0,8,0.00,,SCT120,0.00,VWS V14.01,2013-09-18 18:12:00,
2013-09-18 14:17:00,97.0,33.8,29.79,North,0,0.0,0.0,11,0.00,,SCT120,0.00,VWS V14.01,2013-09-18 18:17:00,
2013-09-18 14:22:00,97.0,33.8,29.79,North,0,0.0,0.0,11,0.00,,SCT120,0.00,VWS V14.01,2013-09-18 18:22:00,
2013-09-18 14:27:00,97.7,34.4,29.79,North,0,0.0,0.0,11,0.00,,SCT120,0.00,VWS V14.01,2013-09-18 18:27:00,
2013-09-18 14:32:00,98.2,34.8,29.79,North,0,0.0,0.0,11,0.00,,SCT120,0.00,VWS V14.01,2013-09-18 18:32:00,
2013-09-18 14:37:00,98.2,34.8,29.79,North,0,0.0,0.0,11,0.00,,SCT120,0.00,VWS V14.01,2013-09-18 18:37:00,
2013-09-18 14:42:00,99.0,33.0,29.79,North,0,0.0,0.0,10,0.00,,SCT120,0.00,VWS V14.01,2013-09-18 18:42:00,
2013-09-18 14:47:00,99.1,27.6,29.79,North,0,0.0,0.0,8,0.00,,SCT120,0.00,VWS V14.01,2013-09-18 18:47:00,
2013-09-18 14:52:00,99.0,27.5,29.79,North,0,0.0,0.0,8,0.00,,SCT120,0.00,VWS V14.01,2013-09-18 18:52:00,
2013-09-18 14:57:00,99.0,27.5,29.79,North,0,0.0,0.0,8,0.00,,SCT120,0.00,VWS V14.01,2013-09-18 18:57:00,
2013-09-18 15:02:00,98.4,34.9,29.79,North,0,0.0,0.0,11,0.00,,SCT120,0.00,VWS V14.01,2013-09-18 19:02:00,
2013-09-18 15:07:00,98.2,27.0,29.79,North,0,0.0,0.0,8,0.00,,SCT120,0.00,VWS V14.01,2013-09-18 19:07:00,
2013-09-18 15:12:00,98.4,27.1,29.79,North,0,0.0,0.0,8,0.00,,SCT120,0.00,VWS V14.01,2013-09-18 19:12:00,
2013-09-18 15:18:00,98.2,34.8,29.79,North,0,0.0,0.0,11,0.00,,SCT120,0.00,VWS V14.01,2013-09-18 19:18:00,
2013-09-18 15:23:00,98.1,26.8,29.79,North,0,0.0,0.0,8,0.00,,SCT120,0.00,VWS V14.01,2013-09-18 19:23:00,
2013-09-18 15:28:00,98.4,34.9,29.79,North,0,0.0,0.0,11,0.00,,SCT120,0.00,VWS V14.01,2013-09-18 19:28:00,
2013-09-18 15:33:00,98.2,39.0,29.79,North,0,0.0,0.0,13,0.00,,SCT120,0.00,VWS V14.01,2013-09-18 19:33:00,
2013-09-18 15:38:00,97.7,34.4,29.79,North,0,0.0,0.0,11,0.00,,SCT120,0.00,VWS V14.01,2013-09-18 19:38:00,
2013-09-18 15:43:00,97.3,38.3,29.79,North,0,0.0,0.0,13,0.00,,SCT120,0.00,VWS V14.01,2013-09-18 19:43:00,
2013-09-18 15:48:00,96.8,43.3,29.79,North,0,0.0,0.0,16,0.00,,SCT120,0.00,VWS V14.01,2013-09-18 19:48:00,
2013-09-18 15:53:00,96.1,42.7,29.79,North,0,0.0,0.0,16,0.00,,SCT120,0.00,VWS V14.01,2013-09-18 19:53:00,
2013-09-18 15:58:00,96.1,42.7,29.79,North,0,0.0,0.0,16,0.00,,SCT120,0.00,VWS V14.01,2013-09-18 19:58:00,
2013-09-18 16:03:00,96.4,43.0,29.79,North,0,0.0,0.0,16,0.00,,SCT120,0.00,VWS V14.01,2013-09-18 20:03:00,
2013-09-18 16:08:00,96.6,43.1,29.79,North,0,0.0,0.0,16,0.00,,SCT120,0.00,VWS V14.01,2013-09-18 20:08:00,
2013-09-18 16:13:00,95.9,39.1,29.79,North,0,0.0,0.0,14,0.00,,SCT120,0.00,VWS V14.01,2013-09-18 20:13:00,
2013-09-18 16:18:00,95.4,43.7,29.79,North,0,0.0,0.0,17,0.00,,SCT120,0.00,VWS V14.01,2013-09-18 20:18:00,
2013-09-18 16:23:00,94.8,44.8,29.79,North,0,0.0,0.0,18,0.00,,SCT120,0.00,VWS V14.01,2013-09-18 20:23:00,
2013-09-18 16:28:00,94.5,44.5,29.79,North,0,0.0,0.0,18,0.00,,SCT120,0.00,VWS V14.01,2013-09-18 20:28:00,
2013-09-18 16:33:00,94.1,44.2,29.79,North,0,0.0,0.0,18,0.00,,SCT120,0.00,VWS V14.01,2013-09-18 20:33:00,
2013-09-18 16:38:00,94.3,44.3,29.79,North,0,0.0,0.0,18,0.00,,SCT120,0.00,VWS V14.01,2013-09-18 20:38:00,
2013-09-18 16:43:00,94.5,44.5,29.79,North,0,0.0,0.0,18,0.00,,SCT120,0.00,VWS V14.01,2013-09-18 20:43:00,
2013-09-18 16:48:00,94.8,44.8,29.79,North,0,0.0,0.0,18,0.00,,SCT120,0.00,VWS V14.01,2013-09-18 20:48:00,
2013-09-18 16:53:00,94.6,44.6,29.79,North,0,0.0,0.0,18,0.00,,SCT120,0.00,VWS V14.01,2013-09-18 20:53:00,
2013-09-18 16:58:00,94.5,44.5,29.79,North,0,0.0,0.0,18,0.00,,SCT120,0.00,VWS V14.01,2013-09-18 20:58:00,
2013-09-18 17:03:00,94.3,44.3,29.79,North,0,0.0,0.0,18,0.00,,SCT120,0.00,VWS V14.01,2013-09-18 21:03:00,
2013-09-18 17:08:00,94.1,45.6,29.79,North,0,0.0,0.0,19,0.00,,SCT120,0.00,VWS V14.01,2013-09-18 21:08:00,
2013-09-18 17:13:00,93.9,44.0,29.79,North,0,0.0,0.0,18,0.00,,SCT120,0.00,VWS V14.01,2013-09-18 21:13:00,
2013-09-18 17:18:00,93.6,45.2,29.79,North,0,0.0,0.0,19,0.00,,SCT120,0.00,VWS V14.01,2013-09-18 21:18:00,
2013-09-18 17:23:00,93.4,45.0,29.79,North,0,0.0,0.0,19,0.00,,SCT120,0.00,VWS V14.01,2013-09-18 21:23:00,
2013-09-18 17:28:00,93.2,44.9,29.79,North,0,0.0,0.0,19,0.00,,SCT120,0.00,VWS V14.01,2013-09-18 21:28:00,
2013-09-18 17:33:00,93.2,46.2,29.79,North,0,0.0,0.0,20,0.00,,SCT120,0.00,VWS V14.01,2013-09-18 21:33:00,
2013-09-18 17:39:00,92.8,47.2,29.79,North,0,0.0,0.0,21,0.00,,SCT120,0.00,VWS V14.01,2013-09-18 21:39:00,
2013-09-18 17:44:00,92.3,48.0,29.82,North,0,0.0,0.0,22,0.00,,SCT120,0.00,VWS V14.01,2013-09-18 21:44:00,
2013-09-18 17:49:00,91.9,48.9,29.82,North,0,0.0,0.0,23,0.00,,SCT120,0.00,VWS V14.01,2013-09-18 21:49:00,
2013-09-18 17:54:00,91.8,49.9,29.82,North,0,0.0,0.0,24,0.00,,SCT120,0.00,VWS V14.01,2013-09-18 21:54:00,
2013-09-18 17:59:00,91.6,50.8,29.82,North,0,0.0,0.0,25,0.00,,SCT120,0.00,VWS V14.01,2013-09-18 21:59:00,
2013-09-18 18:04:00,91.2,52.6,29.82,North,0,0.0,0.0,27,0.00,,SCT120,0.00,VWS V14.01,2013-09-18 22:04:00,
2013-09-18 18:09:00,91.0,52.5,29.82,North,0,0.0,0.0,27,0.00,,SCT120,0.00,VWS V14.01,2013-09-18 22:09:00,
2013-09-18 18:14:00,91.0,52.5,29.82,North,0,0.0,0.0,27,0.00,,SCT120,0.00,VWS V14.01,2013-09-18 22:14:00,
2013-09-18 18:19:00,91.0,53.4,29.82,North,0,0.0,0.0,28,0.00,,SCT120,0.00,VWS V14.01,2013-09-18 22:19:00,
2013-09-18 18:24:00,90.9,53.3,29.82,North,0,0.0,0.0,28,0.00,,SCT120,0.00,VWS V14.01,2013-09-18 22:24:00,
2013-09-18 18:29:00,90.7,53.1,29.82,North,0,0.0,0.0,28,0.00,,SCT120,0.00,VWS V14.01,2013-09-18 22:29:00,
2013-09-18 18:34:00,90.5,53.0,29.82,North,0,0.0,0.0,28,0.00,,SCT120,0.00,VWS V14.01,2013-09-18 22:34:00,
2013-09-18 18:39:00,90.1,53.6,29.82,North,0,0.0,0.0,29,0.00,,SCT120,0.00,VWS V14.01,2013-09-18 22:39:00,
2013-09-18 18:44:00,89.8,53.3,29.82,North,0,0.0,0.0,29,0.00,,SCT120,0.00,VWS V14.01,2013-09-18 22:44:00,
2013-09-18 18:49:00,89.6,54.1,29.82,North,0,0.0,0.0,30,0.00,,SCT120,0.00,VWS V14.01,2013-09-18 22:49:00,
2013-09-18 18:54:00,89.6,54.1,29.82,North,0,0.0,0.0,30,0.00,,SCT120,0.00,VWS V14.01,2013-09-18 22:54:00,
2013-09-18 18:59:00,89.6,54.1,29.82,North,0,0.0,0.0,30,0.00,,SCT120,0.00,VWS V14.01,2013-09-18 22:59:00,
2013-09-18 19:04:00,89.4,53.9,29.82,North,0,0.0,0.0,30,0.00,,SCT120,0.00,VWS V14.01,2013-09-18 23:04:00,
2013-09-18 19:09:00,89.4,53.9,29.82,North,0,0.0,0.0,30,0.00,,SCT120,0.00,VWS V14.01,2013-09-18 23:09:00,
2013-09-18 19:14:00,89.1,54.5,29.82,North,0,0.0,0.0,31,0.00,,SCT120,0.00,VWS V14.01,2013-09-18 23:14:00,
2013-09-18 19:19:00,88.9,54.4,29.82,North,0,0.0,0.0,31,0.00,,SCT120,0.00,VWS V14.01,2013-09-18 23:19:00,
2013-09-18 19:24:00,88.9,54.4,29.82,North,0,0.0,0.0,31,0.00,,SCT120,0.00,VWS V14.01,2013-09-18 23:24:00,
2013-09-18 19:29:00,88.7,54.2,29.85,North,0,0.0,0.0,31,0.00,,SCT120,0.00,VWS V14.01,2013-09-18 23:29:00,
2013-09-18 19:34:00,88.5,54.1,29.85,North,0,0.0,0.0,31,0.00,,SCT120,0.00,VWS V14.01,2013-09-18 23:34:00,
2013-09-18 19:39:00,88.5,54.9,29.85,North,0,0.0,0.0,32,0.00,,SCT120,0.00,VWS V14.01,2013-09-18 23:39:00,
2013-09-18 19:44:00,88.5,54.9,29.85,North,0,0.0,0.0,32,0.00,,SCT120,0.00,VWS V14.01,2013-09-18 23:44:00,
2013-09-18 19:49:00,88.5,54.9,29.85,North,0,0.0,0.0,32,0.00,,SCT120,0.00,VWS V14.01,2013-09-18 23:49:00,
2013-09-18 19:54:00,88.3,54.8,29.85,North,0,0.0,0.0,32,0.00,,SCT120,0.00,VWS V14.01,2013-09-18 23:54:00,
2013-09-18 19:59:00,88.3,55.6,29.85,North,0,0.0,0.0,33,0.00,,SCT120,0.00,VWS V14.01,2013-09-18 23:59:00,
2013-09-18 20:04:00,88.2,55.5,29.85,North,0,0.0,0.0,33,0.00,,SCT120,0.00,VWS V14.01,2013-09-19 00:04:00,
2013-09-18 20:09:00,87.8,56.0,29.85,North,0,0.0,0.0,34,0.00,,SCT120,0.00,VWS V14.01,2013-09-19 00:09:00,
2013-09-18 20:14:00,87.4,56.5,29.85,North,0,0.0,0.0,35,0.00,,SCT120,0.00,VWS V14.01,2013-09-19 00:14:00,
2013-09-18 20:19:00,87.3,57.8,29.85,North,0,0.0,0.0,37,0.00,,SCT120,0.00,VWS V14.01,2013-09-19 00:19:00,
2013-09-18 20:24:00,87.3,58.6,29.85,North,0,0.0,0.0,38,0.00,,SCT120,0.00,VWS V14.01,2013-09-19 00:24:00,
2013-09-18 20:29:00,87.4,58.7,29.85,North,0,0.0,0.0,38,0.00,,SCT120,0.00,VWS V14.01,2013-09-19 00:29:00,
2013-09-18 20:34:00,87.4,58.7,29.85,North,0,0.0,0.0,38,0.00,,SCT120,0.00,VWS V14.01,2013-09-19 00:34:00,
2013-09-18 20:39:00,87.3,58.6,29.85,North,0,0.0,0.0,38,0.00,,SCT120,0.00,VWS V14.01,2013-09-19 00:39:00,
2013-09-18 20:44:00,87.3,58.6,29.88,North,0,0.0,0.0,38,0.00,,SCT120,0.00,VWS V14.01,2013-09-19 00:44:00,
2013-09-18 20:49:00,87.3,59.3,29.88,North,0,0.0,0.0,39,0.00,,SCT120,0.00,VWS V14.01,2013-09-19 00:49:00,
2013-09-18 20:54:00,87.3,59.3,29.88,North,0,0.0,0.0,39,0.00,,SCT120,0.00,VWS V14.01,2013-09-19 00:54:00,
2013-09-18 20:59:00,87.3,58.6,29.88,North,0,0.0,0.0,38,0.00,,SCT120,0.00,VWS V14.01,2013-09-19 00:59:00,
2013-09-18 21:04:00,87.1,59.2,29.88,North,0,0.0,0.0,39,0.00,,SCT120,0.00,VWS V14.01,2013-09-19 01:04:00,
2013-09-18 21:09:00,87.1,59.2,29.88,North,0,0.0,0.0,39,0.00,,SCT120,0.00,VWS V14.01,2013-09-19 01:09:00,
2013-09-18 21:14:00,87.1,59.2,29.88,North,0,0.0,0.0,39,0.00,,SCT120,0.00,VWS V14.01,2013-09-19 01:14:00,
2013-09-18 21:19:00,86.9,59.0,29.88,North,0,0.0,0.0,39,0.00,,SCT120,0.00,VWS V14.01,2013-09-19 01:19:00,
2013-09-18 21:24:00,86.4,59.2,29.88,North,0,0.0,0.0,40,0.00,,SCT120,0.00,VWS V14.01,2013-09-19 01:24:00,
2013-09-18 21:29:00,86.0,58.9,29.88,North,0,0.0,0.0,40,0.00,,SCT120,0.00,VWS V14.01,2013-09-19 01:29:00,
2013-09-18 21:34:00,86.0,59.6,29.88,North,0,0.0,0.0,41,0.00,,SCT120,0.00,VWS V14.01,2013-09-19 01:34:00,
2013-09-18 21:39:00,86.0,59.6,29.88,North,0,0.0,0.0,41,0.00,,SCT120,0.00,VWS V14.01,2013-09-19 01:39:00,
2013-09-18 21:44:00,85.8,60.8,29.88,North,0,0.0,0.0,43,0.00,,SCT120,0.00,VWS V14.01,2013-09-19 01:44:00,
2013-09-18 21:49:00,85.6,61.2,29.88,North,0,0.0,0.0,44,0.00,,SCT120,0.00,VWS V14.01,2013-09-19 01:49:00,
2013-09-18 21:54:00,85.5,61.1,29.88,North,0,0.0,0.0,44,0.00,,SCT120,0.00,VWS V14.01,2013-09-19 01:54:00,
2013-09-18 21:59:00,85.1,62.6,29.88,North,0,0.0,0.0,47,0.00,,SCT120,0.00,VWS V14.01,2013-09-19 01:59:00,
2013-09-18 22:04:00,84.7,63.5,29.88,North,0,0.0,0.0,49,0.00,,SCT120,0.00,VWS V14.01,2013-09-19 02:04:00,
2013-09-18 22:09:00,84.7,64.1,29.88,North,0,0.0,0.0,50,0.00,,SCT120,0.00,VWS V14.01,2013-09-19 02:09:00,
2013-09-18 22:14:00,84.7,64.6,29.91,North,0,0.0,0.0,51,0.00,,SCT120,0.00,VWS V14.01,2013-09-19 02:14:00,
2013-09-18 22:19:00,84.7,64.6,29.91,North,0,0.0,0.0,51,0.00,,SCT120,0.00,VWS V14.01,2013-09-19 02:19:00,
2013-09-18 22:24:00,84.7,64.6,29.91,North,0,0.0,0.0,51,0.00,,SCT120,0.00,VWS V14.01,2013-09-19 02:24:00,
2013-09-18 22:29:00,84.6,64.5,29.88,North,0,0.0,0.0,51,0.00,,SCT120,0.00,VWS V14.01,2013-09-19 02:29:00,
2013-09-18 22:34:00,84.4,64.8,29.88,North,0,0.0,0.0,52,0.00,,SCT120,0.00,VWS V14.01,2013-09-19 02:34:00,
2013-09-18 22:40:00,84.6,65.6,29.88,North,0,0.0,0.0,53,0.00,,SCT120,0.00,VWS V14.01,2013-09-19 02:40:00,
2013-09-18 22:45:00,84.4,65.4,29.88,North,0,0.0,0.0,53,0.00,,SCT120,0.00,VWS V14.01,2013-09-19 02:45:00,
2013-09-18 22:50:00,84.0,65.6,29.88,North,0,0.0,0.0,54,0.00,,SCT120,0.00,VWS V14.01,2013-09-19 02:50:00,
2013-09-18 22:55:00,83.8,65.4,29.88,North,0,0.0,0.0,54,0.00,,SCT120,0.00,VWS V14.01,2013-09-19 02:55:00,
2013-09-18 23:00:00,84.0,66.7,29.91,North,0,0.0,0.0,56,0.00,,SCT120,0.00,VWS V14.01,2013-09-19 03:00:00,
2013-09-18 23:05:00,84.2,66.8,29.91,North,0,0.0,0.0,56,0.00,,SCT120,0.00,VWS V14.01,2013-09-19 03:05:00,
2013-09-18 23:10:00,83.7,66.8,29.91,North,0,0.0,0.0,57,0.00,,SCT120,0.00,VWS V14.01,2013-09-19 03:10:00,
2013-09-18 23:15:00,83.5,67.2,29.88,North,0,0.0,0.0,58,0.00,,SCT120,0.00,VWS V14.01,2013-09-19 03:15:00,
2013-09-18 23:20:00,83.3,68.0,29.88,North,0,0.0,0.0,60,0.00,,SCT120,0.00,VWS V14.01,2013-09-19 03:20:00,
2013-09-18 23:25:00,83.1,68.3,29.88,North,0,0.0,0.0,61,0.00,,SCT120,0.00,VWS V14.01,2013-09-19 03:25:00,
2013-09-18 23:30:00,82.9,68.6,29.88,North,0,0.0,0.0,62,0.00,,SCT120,0.00,VWS V14.01,2013-09-19 03:30:00,
2013-09-18 23:35:00,82.8,68.9,29.88,North,0,0.0,0.0,63,0.00,,SCT120,0.00,VWS V14.01,2013-09-19 03:35:00,
2013-09-18 23:40:00,82.8,68.9,29.88,North,0,0.0,0.0,63,0.00,,SCT120,0.00,VWS V14.01,2013-09-19 03:40:00,
2013-09-18 23:45:00,82.8,69.3,29.88,North,0,0.0,0.0,64,0.00,,SCT120,0.00,VWS V14.01,2013-09-19 03:45:00,
2013-09-18 23:50:00,82.8,69.3,29.88,North,0,0.0,0.0,64,0.00,,SCT120,0.00,VWS V14.01,2013-09-19 03:50:00,
2013-09-18 23:55:00,82.8,69.3,29.88,North,0,0.0,0.0,64,0.00,,SCT120,0.00,VWS V14.01,2013-09-19 03:55:00,